Hourly Data Report for October 04, 2017

All times are specified in Local Standard Time (LST). Add 1 hour to adjust for Daylight Saving Time where and when it is observed.

KENORA A
ONTARIO

49°47'18.000" N
94°21'47.000" W
409.70 m
6034076
71850
YQK

Download Data

Hourly Data (October 2017)
Hourly Data Report for October 4, 2017
Temp Definition
°C
Dew Point Temp Definition
°C
Rel Hum Definition
%
Wind Dir Definition
10's deg

Wind Spd Definition
km/h
Visibility Definition
km
Stn Press Definition
kPa
Hmdx Definition


Wind Chill Definition


Weather Definition


TIME
00:00 Legend Double Dagger 7.6 7.1 97 16 10 24.1 97.08     Mostly Cloudy
01:00 Legend Double Dagger 8.0 7.2 95 17 5 24.1 97.06     LegendNANA
02:00 Legend Double Dagger 8.2 7.5 96 19 4 24.1 97.05     LegendNANA
03:00 Legend Double Dagger 8.8 7.7 93 31 10 24.1 97.07     Cloudy
04:00 Legend Double Dagger 8.1 5.6 84 28 10 24.1 97.08     LegendNANA
05:00 Legend Double Dagger 7.5 4.5 81 28 11 24.1 97.11     LegendNANA
06:00 Legend Double Dagger 7.0 4.5 84 27 11 24.1 97.14     Mostly Cloudy
07:00 Legend Double Dagger 6.2 3.4 82 26 9 24.1 97.17     LegendNANA
08:00 Legend Double Dagger 6.2 3.7 84 27 21 24.1 97.23     LegendNANA
09:00 Legend Double Dagger 6.5 4.3 86 25 19 24.1 97.21     Mostly Cloudy
10:00 Legend Double Dagger 7.6 5.3 85 25 22 24.1 97.18     LegendNANA
11:00 Legend Double Dagger 7.7 5.2 84 25 29 24.1 97.21     LegendNANA
12:00 Legend Double Dagger 8.6 5.3 80 25 30 24.1 97.17     Cloudy
13:00 Legend Double Dagger 9.1 5.0 75 24 28 24.1 97.08     LegendNANA
14:00 Legend Double Dagger 8.9 4.8 75 24 29 24.1 97.04     LegendNANA
15:00 Legend Double Dagger 10.1 5.6 73 25 22 24.1 96.99     Mostly Cloudy
16:00 Legend Double Dagger 11.1 5.0 66 24 30 24.1 96.94     LegendNANA
17:00 Legend Double Dagger 11.2 5.7 68 24 19 24.1 96.91     LegendNANA
18:00 Legend Double Dagger 9.9 5.3 73 24 16 24.1 96.94     Mainly Clear
19:00 Legend Double Dagger 8.8 5.2 78 24 21 24.1 96.96     LegendNANA
20:00 Legend Double Dagger 9.1 4.9 75 24 25 24.1 96.97     LegendNANA
21:00 Legend Double Dagger 8.6 4.6 76 24 21 24.1 96.96     Mostly Cloudy
22:00 Legend Double Dagger 7.8 3.8 76 26 17 24.1 96.94     LegendNANA
23:00 Legend Double Dagger 6.9 3.5 79 26 11 24.1 96.94     LegendNANA

Notes on Data Quality.

Legend

  • E = Estimated
  • M = Missing
  • NA = Not Available
  • ‡ = Partner data that is not subject to review by the National Climate Archives
Date modified: